Location: Barnston
(51.8500°N, 0.4000°E)
Time: 04:35:37
(UTC+00:00)

Cosmos 1680 Rocket - Pass Details

Date: 26 September 2023
Orbit: 758 x 779 km, 74.1° (Epoch: 29 November)

Event Time Altitude Azimuth Distance (km) Brightness Sun altitude
Rises 03:58:23 0° 328° (NNW) 3,276 6.7 -17.7°
Reaches altitude 10° 04:01:02 10° 318° (NW) 2,344 5.8 -17.3°
Maximum altitude 04:05:33 29° 259° (W) 1,406 4.3 -16.7°
Enters shadow 04:06:33 27° 240° (WSW) 1,465 4.4 -16.5°
